N3221H PHOG-PHNL

Flight info

Callsign N3221H
Flight time 0h 26m
Altitude 14000
Route MAUI5 OGG LNY JULLE5
Aircraft C750/M-SBDE3FGHRWXY/S

Departure

Time 2026-04-22 22:36
Airport Kahului International Airport (PHOG)

Arrival

Time 2026-04-22 23:03
Airport Daniel K. Inouye International Airport (PHNL)
Time Latitude Longitude Altitude Speed Heading
2026-04-22 22:23 20.89899 -156.42723 31 ft 0 kts 306°
2026-04-22 22:33 20.89901 -156.42727 31 ft 2 kts 300°
2026-04-22 22:33 20.89898 -156.42746 31 ft 4 kts 243°
2026-04-22 22:33 20.89868 -156.42776 32 ft 8 kts 217°
2026-04-22 22:34 20.89817 -156.42815 33 ft 10 kts 217°
2026-04-22 22:34 20.89749 -156.42866 35 ft 13 kts 214°
2026-04-22 22:34 20.89664 -156.42929 38 ft 16 kts 215°
2026-04-22 22:34 20.89563 -156.43005 41 ft 19 kts 216°
2026-04-22 22:35 20.89468 -156.43078 43 ft 13 kts 216°
2026-04-22 22:35 20.89424 -156.43131 45 ft 9 kts 252°
2026-04-22 22:35 20.89411 -156.43205 47 ft 11 kts 263°
2026-04-22 22:35 20.89451 -156.43232 46 ft 8 kts 27°
2026-04-22 22:36 20.89502 -156.43196 45 ft 48 kts 34°
2026-04-22 22:36 20.90113 -156.42745 148 ft 137 kts 33°
2026-04-22 22:36 20.90917 -156.42127 967 ft 143 kts 34°
2026-04-22 22:36 20.91780 -156.41626 1957 ft 142 kts 20°
2026-04-22 22:37 20.92835 -156.41324 2431 ft 174 kts 13°
2026-04-22 22:37 20.94117 -156.40988 2940 ft 203 kts 14°
2026-04-22 22:37 20.95583 -156.40611 3607 ft 231 kts 13°
2026-04-22 22:37 20.97194 -156.40202 4460 ft 249 kts 13°
2026-04-22 22:38 20.98927 -156.39892 5519 ft 256 kts
2026-04-22 22:38 21.00694 -156.40060 6711 ft 254 kts 347°
2026-04-22 22:38 21.02336 -156.40718 7944 ft 251 kts 332°
2026-04-22 22:38 21.03750 -156.41812 9185 ft 252 kts 317°
2026-04-22 22:39 21.04964 -156.43167 10313 ft 253 kts 309°
2026-04-22 22:39 21.05834 -156.44812 11203 ft 260 kts 289°
2026-04-22 22:39 21.06080 -156.46794 11828 ft 280 kts 268°
2026-04-22 22:39 21.05569 -156.48890 12308 ft 306 kts 247°
2026-04-22 22:40 21.04340 -156.50805 13037 ft 319 kts 229°
2026-04-22 22:40 21.02743 -156.52522 13774 ft 330 kts 227°
2026-04-22 22:40 21.01173 -156.54341 14588 ft 335 kts 232°
2026-04-22 22:40 20.99835 -156.56395 15343 ft 339 kts 241°
2026-04-22 22:41 20.98671 -156.58632 15966 ft 352 kts 244°
2026-04-22 22:41 20.97431 -156.61015 16002 ft 382 kts 242°
2026-04-22 22:41 20.95960 -156.63497 15996 ft 409 kts 238°
2026-04-22 22:41 20.94346 -156.66113 15992 ft 431 kts 239°
2026-04-22 22:42 20.92740 -156.68878 15984 ft 441 kts 240°
2026-04-22 22:42 20.91161 -156.71693 15998 ft 437 kts 240°
2026-04-22 22:42 20.89616 -156.74357 15581 ft 406 kts 239°
2026-04-22 22:42 20.88155 -156.76804 15265 ft 378 kts 239°
2026-04-22 22:43 20.86789 -156.79140 14938 ft 368 kts 240°
2026-04-22 22:43 20.85442 -156.81489 14636 ft 372 kts 240°
2026-04-22 22:43 20.84077 -156.83840 14344 ft 372 kts 239°
2026-04-22 22:43 20.82703 -156.86180 14004 ft 372 kts 239°
2026-04-22 22:44 20.81330 -156.88521 13446 ft 369 kts 239°
2026-04-22 22:44 20.79980 -156.90842 12889 ft 366 kts 239°
2026-04-22 22:44 20.78649 -156.93132 12423 ft 360 kts 239°
2026-04-22 22:44 20.77508 -156.95459 11979 ft 359 kts 251°
2026-04-22 22:45 20.77168 -156.98070 11584 ft 353 kts 271°
2026-04-22 22:45 20.77648 -157.00657 11242 ft 351 kts 288°
2026-04-22 22:45 20.78445 -157.03086 11013 ft 351 kts 289°
2026-04-22 22:45 20.79262 -157.05546 10807 ft 351 kts 289°
2026-04-22 22:46 20.80052 -157.08006 10589 ft 349 kts 289°
2026-04-22 22:46 20.80835 -157.10461 10355 ft 349 kts 289°
2026-04-22 22:46 20.81633 -157.12930 10123 ft 362 kts 289°
2026-04-22 22:46 20.82495 -157.15588 10033 ft 393 kts 289°
2026-04-22 22:47 20.83400 -157.18396 10022 ft 401 kts 289°
2026-04-22 22:47 20.84309 -157.21226 10004 ft 404 kts 289°
2026-04-22 22:47 20.85225 -157.24069 10002 ft 405 kts 289°
2026-04-22 22:47 20.86145 -157.26921 9987 ft 406 kts 289°
2026-04-22 22:48 20.87066 -157.29781 9975 ft 406 kts 289°
2026-04-22 22:48 20.87982 -157.32634 9963 ft 407 kts 289°
2026-04-22 22:48 20.88902 -157.35502 9969 ft 406 kts 289°
2026-04-22 22:48 20.89778 -157.38229 9952 ft 370 kts 289°
2026-04-22 22:49 20.90579 -157.40725 9952 ft 345 kts 289°
2026-04-22 22:49 20.91360 -157.43163 9947 ft 348 kts 289°
2026-04-22 22:49 20.92142 -157.45606 9952 ft 347 kts 289°
2026-04-22 22:49 20.92931 -157.48067 9511 ft 349 kts 289°
2026-04-22 22:50 20.93686 -157.50427 8875 ft 315 kts 289°
2026-04-22 22:50 20.94353 -157.52512 8251 ft 282 kts 289°
2026-04-22 22:50 20.94998 -157.54529 7611 ft 291 kts 289°
2026-04-22 22:50 20.95648 -157.56562 7093 ft 285 kts 289°
2026-04-22 22:51 20.96284 -157.58552 6611 ft 279 kts 289°
2026-04-22 22:51 20.96904 -157.60495 6207 ft 274 kts 289°
2026-04-22 22:51 20.97517 -157.62415 5835 ft 272 kts 289°
2026-04-22 22:51 20.98127 -157.64324 5471 ft 272 kts 289°
2026-04-22 22:52 20.98737 -157.66237 5112 ft 271 kts 289°
2026-04-22 22:52 20.99345 -157.68144 4753 ft 271 kts 289°
2026-04-22 22:52 20.99953 -157.70051 4384 ft 270 kts 289°
2026-04-22 22:52 21.00556 -157.71946 4020 ft 268 kts 289°
2026-04-22 22:53 21.01148 -157.73806 3662 ft 267 kts 289°
2026-04-22 22:53 21.01745 -157.75679 3301 ft 265 kts 289°
2026-04-22 22:53 21.02338 -157.77544 2962 ft 263 kts 289°
2026-04-22 22:53 21.02913 -157.79354 2962 ft 254 kts 289°
2026-04-22 22:54 21.03490 -157.81167 2967 ft 260 kts 289°
2026-04-22 22:54 21.04013 -157.83049 2979 ft 264 kts 286°
2026-04-22 22:54 21.04604 -157.84876 2980 ft 263 kts 292°
2026-04-22 22:54 21.05263 -157.86704 2979 ft 264 kts 291°
2026-04-22 22:55 21.05857 -157.88560 2981 ft 264 kts 289°
2026-04-22 22:55 21.06427 -157.90428 2977 ft 264 kts 289°
2026-04-22 22:55 21.07596 -157.94143 2975 ft 263 kts 288°
2026-04-22 22:56 21.07881 -157.96079 2972 ft 263 kts 276°
2026-04-22 22:56 21.08169 -157.98023 2982 ft 265 kts 282°
2026-04-22 22:56 21.08608 -157.99932 2984 ft 264 kts 287°
2026-04-22 22:56 21.09186 -158.01793 2988 ft 263 kts 291°
2026-04-22 22:57 21.09899 -158.03602 2988 ft 263 kts 296°
2026-04-22 22:57 21.10741 -158.05340 2996 ft 263 kts 300°
2026-04-22 22:57 21.11711 -158.07007 2999 ft 263 kts 304°
2026-04-22 22:57 21.12798 -158.08582 2998 ft 263 kts 309°
2026-04-22 22:58 21.14060 -158.09974 2930 ft 263 kts 326°
2026-04-22 22:58 21.15789 -158.10518 2776 ft 263 kts 359°
2026-04-22 22:58 21.17586 -158.10090 2308 ft 266 kts 20°
2026-04-22 22:58 21.19077 -158.08962 1988 ft 259 kts 44°
2026-04-22 22:59 21.20320 -158.07618 2016 ft 254 kts 43°
2026-04-22 22:59 21.21610 -158.06308 2015 ft 257 kts 42°
2026-04-22 22:59 21.22904 -158.04996 2009 ft 249 kts 44°
2026-04-22 22:59 21.23882 -158.03554 1974 ft 228 kts 58°
2026-04-22 23:00 21.24680 -158.02138 1972 ft 218 kts 53°
2026-04-22 23:00 21.25622 -158.00905 1931 ft 214 kts 50°
2026-04-22 23:00 21.26518 -157.99662 1638 ft 198 kts 52°
2026-04-22 23:00 21.27275 -157.98583 1358 ft 166 kts 52°
2026-04-22 23:01 21.27926 -157.97656 1158 ft 143 kts 52°
2026-04-22 23:01 21.28495 -157.96849 969 ft 132 kts 53°
2026-04-22 23:01 21.29042 -157.96083 795 ft 131 kts 55°
2026-04-22 23:01 21.29598 -157.95288 608 ft 129 kts 57°
2026-04-22 23:02 21.30120 -157.94532 447 ft 131 kts 55°
2026-04-22 23:02 21.30670 -157.93752 302 ft 134 kts 57°
2026-04-22 23:02 21.31232 -157.92952 98 ft 133 kts 55°
2026-04-22 23:02 21.31763 -157.92188 14 ft 116 kts 53°
2026-04-22 23:03 21.32194 -157.91583 12 ft 77 kts 54°
2026-04-22 23:03 21.32391 -157.91311 11 ft 26 kts 51°
2026-04-22 23:03 21.32374 -157.91186 13 ft 17 kts 127°
2026-04-22 23:03 21.32315 -157.91193 14 ft 8 kts 235°
2026-04-22 23:04 21.32287 -157.91236 13 ft 7 kts 232°
2026-04-22 23:04 21.32256 -157.91279 13 ft 8 kts 232°
2026-04-22 23:04 21.32221 -157.91295 13 ft 5 kts 153°
2026-04-22 23:04 21.32191 -157.91268 13 ft 7 kts 139°
2026-04-22 23:05 21.32182 -157.91240 13 ft 4 kts 355°
2026-04-22 23:05 21.32187 -157.91244 13 ft 0 kts 323°